HYLAS 1

Last updated on Mon Sep 15 2025 00:02:47 GMT+0000 (Coordinated Universal Time)

1 37237U 10065A 25257.13628957 -.00000147 00000+0 00000+0 0 9997 2 37237 4.9385 76.4055 0001726 187.8728 32.5657 1.00615503 4112
UTC large
Height (km)
Speed (km/s)
/
Latitude / Longitude
Inclination (degrees)
Orbital Period (minutes)
Azimuth
Elevation
Range (km)
Doppler Factor

Next 0 passes for location: London (51.5072 / 0.1276)

Sorry there are no passes over London.